Regional Weather Roundup
Issued by NWS

Home | Current Version | Previous Version | Graphics & Text | Print | Product List | Glossary On
Versions: 1 2 3 4 5 6 7 8 9 10 11 12 13 14 15 16 17 18 19 20 21 22 23 24 25 26 27 28 29 30 31 32 33 34 35 36 37 38 39 40 41 42 43 44 45 46 47 48 49 50
335
ASUS43 KLOT 251209
RWRIL

ILLINOIS REGIONAL WEATHER ROUNDUP
NATIONAL WEATHER SERVICE CHICAGO/ROMEOVILLE IL
700 AM CDT TUE JUL 25 2017

NOTE: "FAIR" INDICATES FEW OR NO CLOUDS BELOW 12,000 FEET WITH NO
SIGNIFICANT WEATHER AND/OR OBSTRUCTIONS TO VISIBILITY.

* THESE STATIONS ARE NOT UNDER NWS QUALITY CONTROL. THEY ALSO MAY NOT
  REPORT WEATHER SUCH AS PRECIPITATION OR FOG.

ILZ001-002-007-009-015-016-024-251300-
NORTHWEST ILLINOIS

CITY           SKY/WX    TMP DP  RH WIND       PRES   REMARKS
MOLINE         SUNNY     62  59  90 E3        30.14R
6HR MIN TEMP:  59; 6HR MAX TEMP:  64;

STERLING*      SUNNY     59  58  96 E5        30.16S
SAVANNA*       SUNNY     60  58  96 NE5       30.15S FOG
$$

ILZ003-004-008-010-011-017-018-251300-
NORTH CENTRAL ILLINOIS

CITY           SKY/WX    TMP DP  RH WIND       PRES   REMARKS
ROCKFORD       SUNNY     63  59  87 CALM      30.19R
6HR MIN TEMP:  59; 6HR MAX TEMP:  63;

FREEPORT*      FOG       55  55 100 CALM      30.19R VSB 1/2
ROCHELLE*      SUNNY     58  58  99 SE3       30.17S FOG
DE KALB*       SUNNY     61  60  97 SE6       30.19R
PERU*          SUNNY    N/A N/A N/A E7        30.17R HAZE
$$

ILZ005-006-012>014-019>023-251300-
NORTHEAST ILLINOIS

CITY           SKY/WX    TMP DP  RH WIND       PRES   REMARKS
CHICAGO-OHARE  MOSUNNY   66  62  87 CALM      30.18R
6HR MIN TEMP:  61; 6HR MAX TEMP:  66;

CHICAGO-MIDWAY MOSUNNY   67  60  78 SE5       30.18R
6HR MIN TEMP:  66; 6HR MAX TEMP:  69;

AURORA         SUNNY     62  60  93 E3        30.19R
6HR MIN TEMP:  56; 6HR MAX TEMP:  62;

LANSING*       SUNNY     62  58  87 SE3       30.19R
JOLIET*        MOSUNNY   65  62  89 E5        30.19R
WAUKEGAN       SUNNY     64  63  96 CALM      30.18R
6HR MIN TEMP:  56; 6HR MAX TEMP:  64;

DUPAGE AIRPORT SUNNY     63  61  93 SE5       30.18R
6HR MIN TEMP:  57; 6HR MAX TEMP:  63;

WHEELING       SUNNY     64  62  93 CALM      30.20R
6HR MIN TEMP:  61; 6HR MAX TEMP:  64;

MORRIS*        SUNNY     61  60  95 E3        30.18R
ROMEOVILLE*    SUNNY     64  59  84 SE6       30.19R
NORTHERLY ISL    N/A     70  59  68 SE5         N/A
$$

LMZ740>746-251300-
SOUTHERN LAKE MICHIGAN

STATION/POSITION SKY/WX   TEMP    WIND        PRES    VSBY  WAVE
                          AIR SEA DIR/SP/G                  HT/PER
                          (F)     (DEG/KT/KT) (MB)    (MI)  (FT/S)
SOUTHERN BUOY              70 71  110/  6/  8 1021.9          2/ 6
WILMETTE HARBOR            71 72  140/  8/ 10   N/A           2/ 5
HARRISON CRIB              71     150/ 10/ 12   N/A
BURNHAM HARBOR             70                   N/A
CALUMET HARBOR             68     150/  4/  5 1021.5R
BURNS HARBOR               67     100/  7/  9 1022.4F
MICHIGAN CITY              63     110/  5/  6   N/A
MICHIGAN CITY 6N           67 74  140/  8/ 12   N/A           3/ 5
ST. JOSEPH                 64 71  160/ 10/ 12 1022.5          2/ 5
$$

ILZ025>027-034>036-040-047-049-050-058-095>099-251300-
WEST-CENTRAL ILLINOIS

CITY           SKY/WX    TMP DP  RH WIND       PRES   REMARKS
QUINCY         SUNNY     66  63  90 E8        30.12R
GALESBURG*     SUNNY     62  60  94 E5        30.15S
MACOMB*        SUNNY     60  60 100 CALM      30.16S FOG
JACKSONVILLE*  PTSUNNY   63  61  94 E5        30.13S
PITTSFIELD*    SUNNY     65  64  96 NE3       30.14R
$$

ILZ028>032-037-038-041>044-048-051>054-059>061-251300-
CENTRAL ILLINOIS

CITY           SKY/WX    TMP DP  RH WIND       PRES   REMARKS
PONTIAC        SUNNY     62  61  98 SE6       30.18R
BLOOMINGTON    SUNNY     60  59  96 E5        30.18R
DECATUR        SUNNY     63  61  93 E6        30.15R
PEORIA         SUNNY     65  62  90 E7        30.15R
6HR MIN TEMP:  63; 6HR MAX TEMP:  67;

LACON*         SUNNY     61  60  96 E7        30.15S
LINCOLN*       MOSUNNY   63  62  98 CALM      30.15S
SPRINGFIELD    SUNNY     65  63  93 E5        30.14R
6HR MIN TEMP:  63; 6HR MAX TEMP:  69;

TAYLORVILLE    SUNNY     66  63  90 E5        30.14R
6HR MIN TEMP:  64; 6HR MAX TEMP:  67;

$$

ILZ033-039-045-046-055>057-062-063-251300-
EAST-CENTRAL ILLINOIS

CITY           SKY/WX    TMP DP  RH WIND       PRES   REMARKS
CHAMPAIGN      SUNNY     63  60  90 E8        30.17R
RANTOUL*       SUNNY     64  61  91 E6        30.18R
MATTOON        SUNNY     66  63  90 SE9       30.14R
PARIS*         SUNNY     63  62  95 E5        30.17R
$$

ILZ079-100>102-251300-
SOUTHWEST ILLINOIS

CITY           SKY/WX    TMP DP  RH WIND       PRES   REMARKS
ALTON          MOSUNNY   68  66  94 E6        30.10S
BELLEVILLE     SUNNY     70  67  89 NE3       30.10S
CAHOKIA*       SUNNY     74  66  76 NE5       30.09R
SPARTA*        SUNNY     71  67  88 E6        30.09S
$$

ILZ064>066-069>071-074>076-080>082-084>086-088>090-092>094-251300-
SOUTH-CENTRAL ILLINOIS

CITY           SKY/WX    TMP DP  RH WIND       PRES   REMARKS
CARBONDALE     MOSUNNY   72  71  97 NE5       30.08R
6HR MIN TEMP:  70; 6HR MAX TEMP:  75;

CAIRO*         CLOUDY    76  73  92 E3        30.07R
EFFINGHAM*     MOSUNNY   67  66  95 E6        30.15R
MARION         MOSUNNY   73  73 100 E7        30.10R
MT. VERNON     MOSUNNY   70  67  90 NE6       30.11R
CENTRALIA*     PTSUNNY   71  68  91 E6        30.10S
SALEM*         PTSUNNY   71  66  84 E6        30.11S
METROPOLIS*    CLOUDY    75  72  91 CALM      30.08S
$$

ILZ067-068-072-073-078-083-087-091-251300-
SOUTHEAST ILLINOIS

CITY           SKY/WX    TMP DP  RH WIND       PRES   REMARKS
LAWRENCEVILLE  MOSUNNY   68  64  87 E6        30.14R
FLORA*         SUNNY     70  67  89 NE5       30.12S
FAIRFIELD*     PTSUNNY   70  68  93 NE3       30.11R
HARRISBURG*    MOSUNNY   71  69  93 E5        30.09S
ROBINSON*      SUNNY     66  63  89 E3        30.16R
CARMI*         CLOUDY    71  69  94 E3        30.10R
$$

ABBREVIATIONS USED IN REMARKS
   TC - TEMPERATURE IN CELSIUS
  WCI - WIND CHILL INDEX
   HX - HEAT INDEX
  VSB - VISIBILITY
$$





USA.gov is the U.S. government's official web portal to all federal, state and local government web resources and services.